sat.trackr.live / text

‹ back to catalog

STARLINK-4089

NORAD 52831 · 2022-062B

PAYLOAD ACTIVE UNKNOWN

§ Identity

Operator
Country
US
Launch date
2022-06-17
Launch site
AFETR
Launch vehicle
Mass (kg)
RCS (m²)

Purposes: comms

External: N2YO · Heavens-Above · Gunter

§ Orbital elements

Epoch: 2026-09-19T21:52:19.498656Z

Period
94.01 min
Inclination
53.1583°
Eccentricity
0.0001071
Mean motion
15.31697351 rev/d
Perigee alt
470.0 km
Apogee alt
471.5 km
Semi-major
6,848.9 km
B*
1.9078e-5
RAAN
231.6083°
Arg perigee
66.6404°
Mean anomaly
293.4710°
Rev number
23,524

§ Raw data

STARLINK-40891 52831U 22062B   26262.91133679  .00000227  00000+0  19078-4 0  99972 52831  53.1583 231.6083 0001071  66.6404 293.4710 15.31697351235247

JSON: /api/v1/satellites/52831 · /tle

For live sub-satellite position, see the globe view (requires WebGL).

§ Visibility from observer

Set your observer location to see the next 7 days of passes ≥ 10°. The values pass through the URL so the page stays shareable.

No JS? Fill the form by hand. The geolocation button needs JavaScript.